,,PA_Meas_PMT16A,,PR_Meas_QMR101_102,,RH_Meas_QMH101,,SR_Meas_QMS101,,TA_Meas_QMH101,,GenWind,,GenWind,
time,status,PA,status,PR,status,RH,status,SR,status,TA,status,DirAvg,status,SpdAvg,
2010-10-15, 00:00:04,VALID,917.469,VALID,0,VALID,92.9599,VALID,0,VALID,19.3893,VALID,10,VALID,0.486719,
2010-10-15, 00:01:04,VALID,917.451,VALID,0,VALID,92.9066,VALID,0,VALID,19.4883,VALID,10,VALID,0.291016,
2010-10-15, 00:02:04,VALID,917.411,VALID,0,VALID,92.0146,VALID,0,VALID,19.5273,VALID,10,VALID,0.639453,
2010-10-15, 00:03:04,VALID,917.412,VALID,0,VALID,92.4415,VALID,0,VALID,19.5858,VALID,10,VALID,0.629687,
2010-10-15, 00:04:04,VALID,917.383,VALID,0,VALID,92.19,VALID,0,VALID,19.6053,VALID,10,VALID,0.430469,
2010-10-15, 00:05:04,VALID,917.372,VALID,0,VALID,92.4797,VALID,0,VALID,19.6428,VALID,10,VALID,0.167187,
2010-10-15, 00:06:04,VALID,917.372,VALID,0,VALID,91.9613,VALID,0,VALID,19.6623,VALID,10,VALID,0.389453,
2010-10-15, 00:07:04,VALID,917.374,VALID,0,VALID,92.068,VALID,0,VALID,19.7028,VALID,10,VALID,0.130469,
2010-10-15, 00:08:04,VALID,917.36,VALID,0,VALID,92.0375,VALID,0,VALID,19.7028,VALID,10,VALID,0,
2010-10-15, 00:09:04,VALID,917.359,VALID,0,VALID,91.9308,VALID,0,VALID,19.7028,VALID,10,VALID,0.467578,
2010-10-15, 00:10:04,VALID,917.337,VALID,0,VALID,90.9169,VALID,0,VALID,19.6833,VALID,10,VALID,0.233594,
2010-10-15, 00:11:04,VALID,917.346,VALID,0,VALID,90.6958,VALID,0,VALID,19.6833,VALID,10,VALID,0,
2010-10-15, 00:12:04,VALID,917.321,VALID,0,VALID,91.3743,VALID,0,VALID,19.6638,VALID,10,VALID,0,
2010-10-15, 00:13:04,VALID,917.337,VALID,0,VALID,91.7631,VALID,0,VALID,19.6428,VALID,10,VALID,0,
2010-10-15, 00:14:04,VALID,917.286,VALID,0,VALID,91.8393,VALID,0,VALID,19.6638,VALID,10,VALID,0,
2010-10-15, 00:15:04,VALID,917.309,VALID,0,VALID,89.0034,VALID,0,VALID,19.6248,VALID,10,VALID,0,
2010-10-15, 00:16:04,VALID,917.271,VALID,0,VALID,89.3083,VALID,0,VALID,19.5273,VALID,10,VALID,0,
2010-10-15, 00:17:04,VALID,917.272,VALID,0,VALID,90.6882,VALID,0,VALID,19.4688,VALID,10,VALID,0,
2010-10-15, 00:18:04,VALID,917.288,VALID,0,VALID,91.7021,VALID,0,VALID,19.4088,VALID,10,VALID,0,
2010-10-15, 00:19:04,VALID,917.278,VALID,0,VALID,92.3043,VALID,0,VALID,19.3908,VALID,10,VALID,0.119531,
2010-10-15, 00:20:04,VALID,917.301,VALID,0,VALID,92.472,VALID,0,VALID,19.3713,VALID,10,VALID,0.183203,
2010-10-15, 00:21:04,VALID,917.243,VALID,0,VALID,92.7846,VALID,0,VALID,19.3908,VALID,10,VALID,0.663281,
2010-10-15, 00:22:04,VALID,917.257,VALID,0,VALID,91.359,VALID,0,VALID,19.3518,VALID,10,VALID,0.0347656,
2010-10-15, 00:23:04,VALID,917.246,VALID,0,VALID,91.6563,VALID,0,VALID,19.3113,VALID,10,VALID,0,
2010-10-15, 00:24:04,VALID,917.255,VALID,0,VALID,91.9231,VALID,0,VALID,19.3113,VALID,10,VALID,0,
2010-10-15, 00:25:04,VALID,917.202,VALID,0,VALID,92.9142,VALID,0,VALID,19.4103,VALID,10,VALID,0.479297,
2010-10-15, 00:26:04,VALID,917.223,VALID,0,VALID,90.3451,VALID,0,VALID,19.4088,VALID,10,VALID,0.00195313,
2010-10-15, 00:27:04,VALID,917.21,VALID,0,VALID,91.6182,VALID,0,VALID,19.4088,VALID,10,VALID,0.392188,
2010-10-15, 00:28:04,VALID,917.2,VALID,0,VALID,92.2662,VALID,0,VALID,19.4088,VALID,10,VALID,0.370313,
2010-10-15, 00:29:04,VALID,917.171,VALID,0,VALID,91.6792,VALID,0,VALID,19.3893,VALID,10,VALID,0.161328,
2010-10-15, 00:30:04,VALID,917.111,VALID,0,VALID,92.1671,VALID,0,VALID,19.4493,VALID,10,VALID,0.308984,
2010-10-15, 00:31:04,VALID,917.107,VALID,0,VALID,92.3501,VALID,0,VALID,19.4493,VALID,10,VALID,0.225781,
2010-10-15, 00:32:04,VALID,917.088,VALID,0,VALID,90.8787,VALID,0,VALID,19.4478,VALID,10,VALID,0.125781,
2010-10-15, 00:33:04,VALID,917.067,VALID,0,VALID,89.598,VALID,0,VALID,19.3518,VALID,10,VALID,0.344531,
2010-10-15, 00:34:04,VALID,917.055,VALID,0,VALID,92.3119,VALID,0,VALID,19.3323,VALID,10,VALID,0.696484,
2010-10-15, 00:35:04,VALID,917.013,VALID,0,VALID,91.7859,VALID,0,VALID,19.2723,VALID,10,VALID,0.148438,
2010-10-15, 00:36:04,VALID,917.015,VALID,0,VALID,92.2357,VALID,0,VALID,19.2933,VALID,10,VALID,0.142188,
2010-10-15, 00:37:04,VALID,916.991,VALID,0,VALID,92.2433,VALID,0,VALID,19.2738,VALID,10,VALID,0.441406,
2010-10-15, 00:38:04,VALID,916.985,VALID,0,VALID,91.7707,VALID,0,VALID,19.2348,VALID,10,VALID,0.000390625,
2010-10-15, 00:39:04,VALID,916.979,VALID,0,VALID,92.3348,VALID,0,VALID,19.2543,VALID,10,VALID,0.163281,
2010-10-15, 00:40:04,VALID,916.948,VALID,0,VALID,92.6321,VALID,0,VALID,19.2348,VALID,10,VALID,0.157031,
2010-10-15, 00:41:04,VALID,916.973,VALID,0,VALID,92.8989,VALID,0,VALID,19.2348,VALID,10,VALID,0.260156,
2010-10-15, 00:42:04,VALID,916.979,VALID,0,VALID,91.0083,VALID,0,VALID,19.1554,VALID,10,VALID,0.410937,
2010-10-15, 00:43:04,VALID,916.949,VALID,0,VALID,91.603,VALID,0,VALID,19.0969,VALID,10,VALID,0.367578,
2010-10-15, 00:44:04,VALID,916.923,VALID,0,VALID,93.2191,VALID,0,VALID,18.9994,VALID,10,VALID,0.550391,
2010-10-15, 00:45:04,VALID,916.91,VALID,0,VALID,93.9815,VALID,0,VALID,19.0189,VALID,10,VALID,0.00585938,
2010-10-15, 00:46:04,VALID,916.919,VALID,0,VALID,93.3716,VALID,0,VALID,19.0203,VALID,10,VALID,0.285937,
2010-10-15, 00:47:04,VALID,916.952,VALID,0,VALID,94.012,VALID,0,VALID,19.0579,VALID,10,VALID,0.335547,
2010-10-15, 00:48:04,VALID,916.943,VALID,0,VALID,94.0196,VALID,0,VALID,19.1164,VALID,10,VALID,0.107813,
2010-10-15, 00:49:04,VALID,916.943,VALID,0,VALID,94.355,VALID,0,VALID,19.1749,VALID,10,VALID,0,
2010-10-15, 00:50:04,VALID,916.926,VALID,0,VALID,94.3931,VALID,0,VALID,19.2153,VALID,10,VALID,0,
2010-10-15, 00:51:04,VALID,916.908,VALID,0,VALID,94.5837,VALID,0,VALID,19.2543,VALID,10,VALID,0.151953,
2010-10-15, 00:52:04,VALID,916.872,VALID,0,VALID,92.7007,VALID,0,VALID,19.1568,VALID,10,VALID,0.00195313,
2010-10-15, 00:53:04,VALID,916.894,VALID,0,VALID,92.0832,VALID,0,VALID,19.0983,VALID,10,VALID,0.470313,
2010-10-15, 00:54:04,VALID,916.885,VALID,0,VALID,92.2662,VALID,0,VALID,19.0203,VALID,10,VALID,0.460547,
2010-10-15, 00:55:04,VALID,916.909,VALID,0,VALID,93.3106,VALID,0,VALID,18.9424,VALID,10,VALID,0.376563,
2010-10-15, 00:56:04,VALID,916.88,VALID,0,VALID,93.7451,VALID,0,VALID,18.8839,VALID,10,VALID,0.304297,
2010-10-15, 00:57:04,VALID,916.878,VALID,0,VALID,93.4631,VALID,0,VALID,18.785,VALID,10,VALID,0.232031,
2010-10-15, 00:58:04,VALID,916.846,VALID,0,VALID,93.8061,VALID,0,VALID,18.7669,VALID,10,VALID,0.323828,
2010-10-15, 00:59:04,VALID,916.822,VALID,0,VALID,94.1339,VALID,0,VALID,18.6889,VALID,10,VALID,0.290625,
2010-10-15, 01:00:05,VALID,916.791,VALID,0,VALID,94.3474,VALID,0,VALID,18.6304,VALID,10,VALID,0.367578,
2010-10-15, 01:01:05,VALID,916.759,VALID,0,VALID,94.4389,VALID,0,VALID,18.572,VALID,10,VALID,0.558594,
2010-10-15, 01:02:05,VALID,916.74,VALID,0,VALID,94.9573,VALID,0,VALID,18.5316,VALID,10,VALID,0.936719,
2010-10-15, 01:03:05,VALID,916.713,VALID,0,VALID,95.2165,VALID,0,VALID,18.5121,VALID,10,VALID,0.424219,
2010-10-15, 01:04:05,VALID,916.696,VALID,0,VALID,95.0183,VALID,0,VALID,18.494,VALID,10,VALID,0.324219,
2010-10-15, 01:05:05,VALID,916.704,VALID,0,VALID,95.3766,VALID,0,VALID,18.494,VALID,10,VALID,0.356641,
2010-10-15, 01:06:05,VALID,916.717,VALID,0,VALID,95.6129,VALID,0,VALID,18.5135,VALID,10,VALID,0.663672,
2010-10-15, 01:07:05,VALID,916.722,VALID,0,VALID,95.9636,VALID,0,VALID,18.59,VALID,10,VALID,0.692187,
2010-10-15, 01:08:05,VALID,916.702,VALID,0,VALID,96.0932,VALID,0,VALID,18.6095,VALID,10,VALID,0.492969,
2010-10-15, 01:09:05,VALID,916.706,VALID,0,VALID,96.421,VALID,0,VALID,18.7669,VALID,10,VALID,0.673828,
2010-10-15, 01:10:05,VALID,916.702,VALID,0,VALID,96.2685,VALID,0,VALID,18.7474,VALID,10,VALID,0.529688,
2010-10-15, 01:11:05,VALID,916.706,VALID,0,VALID,95.9026,VALID,0,VALID,18.6694,VALID,10,VALID,0.612891,
2010-10-15, 01:12:05,VALID,916.666,VALID,0,VALID,96.0474,VALID,0,VALID,18.7279,VALID,10,VALID,0.507422,
2010-10-15, 01:13:05,VALID,916.689,VALID,0,VALID,96.1999,VALID,0,VALID,18.746,VALID,10,VALID,0.568359,
2010-10-15, 01:14:05,VALID,916.64,VALID,0,VALID,96.2761,VALID,0,VALID,18.8059,VALID,10,VALID,0.569141,
2010-10-15, 01:15:05,VALID,916.612,VALID,0,VALID,96.3142,VALID,0,VALID,18.8059,VALID,10,VALID,0.553906,
2010-10-15, 01:16:05,VALID,916.649,VALID,0,VALID,95.9483,VALID,0,VALID,18.7279,VALID,10,VALID,0.360938,
2010-10-15, 01:17:05,VALID,916.604,VALID,0,VALID,95.9483,VALID,0,VALID,18.7279,VALID,10,VALID,0.478906,
2010-10-15, 01:18:05,VALID,916.647,VALID,0,VALID,96.1618,VALID,0,VALID,18.7265,VALID,10,VALID,0.665234,
2010-10-15, 01:19:05,VALID,916.641,VALID,0,VALID,96.238,VALID,0,VALID,18.7669,VALID,10,VALID,0.648047,
2010-10-15, 01:20:05,VALID,916.643,VALID,0,VALID,96.2456,VALID,0,VALID,18.7864,VALID,10,VALID,0.325391,
2010-10-15, 01:21:05,VALID,916.575,VALID,0,VALID,95.9483,VALID,0,VALID,18.7084,VALID,10,VALID,0.626953,
2010-10-15, 01:22:05,VALID,916.548,VALID,0,VALID,95.9254,VALID,0,VALID,18.6694,VALID,10,VALID,0.25,
2010-10-15, 01:23:05,VALID,916.569,VALID,0,VALID,95.7958,VALID,0,VALID,18.6499,VALID,10,VALID,0.0347656,
2010-10-15, 01:24:05,VALID,916.567,VALID,0,VALID,95.8035,VALID,0,VALID,18.6513,VALID,10,VALID,0.0691406,
2010-10-15, 01:25:05,VALID,916.572,VALID,0,VALID,95.6357,VALID,0,VALID,18.5914,VALID,10,VALID,0.228125,
2010-10-15, 01:26:05,VALID,916.613,VALID,0,VALID,95.3766,VALID,0,VALID,18.5525,VALID,10,VALID,0.460938,
2010-10-15, 01:27:05,VALID,916.605,VALID,0,VALID,95.0488,VALID,0,VALID,18.5135,VALID,10,VALID,0,
2010-10-15, 01:28:05,VALID,916.623,VALID,0,VALID,94.9192,VALID,0,VALID,18.4745,VALID,10,VALID,0,
2010-10-15, 01:29:05,VALID,916.574,VALID,0,VALID,95.5519,VALID,0,VALID,18.5929,VALID,10,VALID,0.673437,
2010-10-15, 01:30:05,VALID,916.57,VALID,0,VALID,95.6815,VALID,0,VALID,18.5914,VALID,10,VALID,0.733984,
2010-10-15, 01:31:05,VALID,916.586,VALID,0,VALID,95.7425,VALID,0,VALID,18.5525,VALID,10,VALID,1.02695,
2010-10-15, 01:32:05,VALID,916.538,VALID,0,VALID,96.0017,VALID,0,VALID,18.5914,VALID,10,VALID,0.724219,
2010-10-15, 01:33:05,VALID,916.554,VALID,0,VALID,96.2228,VALID,0,VALID,18.6499,VALID,10,VALID,0.452344,
2010-10-15, 01:34:05,VALID,916.53,VALID,0,VALID,96.1618,VALID,0,VALID,18.6694,VALID,10,VALID,0.521484,
2010-10-15, 01:35:05,VALID,916.552,VALID,0,VALID,95.9941,VALID,0,VALID,18.6694,VALID,10,VALID,0.285937,
2010-10-15, 01:36:05,VALID,916.488,VALID,0,VALID,96.2228,VALID,0,VALID,18.7279,VALID,10,VALID,0.347266,
2010-10-15, 01:37:05,VALID,916.508,VALID,0,VALID,95.9178,VALID,0,VALID,18.7279,VALID,10,VALID,0.448047,
2010-10-15, 01:38:05,VALID,916.454,VALID,0,VALID,95.8187,VALID,0,VALID,18.7084,VALID,10,VALID,0.645703,
2010-10-15, 01:39:05,VALID,916.457,VALID,0,VALID,95.8721,VALID,0,VALID,18.7279,VALID,10,VALID,0.903906,
2010-10-15, 01:40:05,VALID,916.427,VALID,0,VALID,95.6662,VALID,0,VALID,18.6889,VALID,10,VALID,0.760156,
2010-10-15, 01:41:05,VALID,916.442,VALID,0,VALID,95.5671,VALID,0,VALID,18.7098,VALID,10,VALID,0.737891,
2010-10-15, 01:42:05,VALID,916.422,VALID,0,VALID,95.6205,VALID,0,VALID,18.6889,VALID,10,VALID,0.65625,
2010-10-15, 01:43:05,VALID,916.459,VALID,0,VALID,95.7196,VALID,0,VALID,18.7084,VALID,10,VALID,0.653906,
2010-10-15, 01:44:05,VALID,916.441,VALID,0,VALID,95.3384,VALID,0,VALID,18.6304,VALID,10,VALID,0.871875,
2010-10-15, 01:45:05,VALID,916.448,VALID,0,VALID,95.8492,VALID,0,VALID,18.7279,VALID,10,VALID,0.633594,
2010-10-15, 01:46:05,VALID,916.456,VALID,0,VALID,96.1084,VALID,0,VALID,18.7864,VALID,10,VALID,0.965234,
2010-10-15, 01:47:05,VALID,916.47,VALID,0,VALID,95.6739,VALID,0,VALID,18.7279,VALID,10,VALID,0.563281,
2010-10-15, 01:48:05,VALID,916.458,VALID,0,VALID,95.8873,VALID,0,VALID,18.7669,VALID,10,VALID,1.03945,
2010-10-15, 01:49:05,VALID,916.433,VALID,0,VALID,95.59,VALID,0,VALID,18.7669,VALID,10,VALID,0.684766,
2010-10-15, 01:50:05,VALID,916.44,VALID,0,VALID,95.8568,VALID,0,VALID,18.8644,VALID,10,VALID,0.337891,
2010-10-15, 01:51:05,VALID,916.444,VALID,0,VALID,95.3766,VALID,0,VALID,18.8073,VALID,10,VALID,0.421875,
2010-10-15, 01:52:05,VALID,916.442,VALID,0,VALID,95.2775,VALID,0,VALID,18.8449,VALID,10,VALID,0.846094,
2010-10-15, 01:53:05,VALID,916.409,VALID,0,VALID,95.5748,VALID,0,VALID,18.9243,VALID,10,VALID,0.318359,
2010-10-15, 01:54:05,VALID,916.383,VALID,0,VALID,95.247,VALID,0,VALID,18.8839,VALID,10,VALID,0.239453,
2010-10-15, 01:55:05,VALID,916.358,VALID,0,VALID,94.8353,VALID,0,VALID,18.8449,VALID,10,VALID,0.411328,
2010-10-15, 01:56:05,VALID,916.371,VALID,0,VALID,94.8048,VALID,0,VALID,18.8644,VALID,10,VALID,0.297266,
2010-10-15, 01:57:05,VALID,916.371,VALID,0,VALID,95.1174,VALID,0,VALID,18.9034,VALID,10,VALID,0.760938,
2010-10-15, 01:58:05,VALID,916.379,VALID,0,VALID,94.9496,VALID,0,VALID,18.9034,VALID,10,VALID,0.210938,
2010-10-15, 01:59:05,VALID,916.402,VALID,0,VALID,94.6981,VALID,0,VALID,18.9034,VALID,10,VALID,0,
2010-10-15, 02:00:05,VALID,916.408,VALID,0,VALID,94.4846,VALID,0,VALID,18.9034,VALID,10,VALID,0,
2010-10-15, 02:01:05,VALID,916.385,VALID,0,VALID,94.3321,VALID,0,VALID,18.8839,VALID,10,VALID,0.0757812,
2010-10-15, 02:02:05,VALID,916.356,VALID,0,VALID,94.8734,VALID,0,VALID,18.9424,VALID,10,VALID,0.747656,
2010-10-15, 02:03:05,VALID,916.356,VALID,0,VALID,94.1492,VALID,0,VALID,18.8644,VALID,10,VALID,0.383203,
2010-10-15, 02:04:05,VALID,916.338,VALID,0,VALID,93.5927,VALID,0,VALID,18.8449,VALID,10,VALID,0.514453,
2010-10-15, 02:05:05,VALID,916.317,VALID,0,VALID,94.073,VALID,0,VALID,18.7864,VALID,10,VALID,0.63125,
2010-10-15, 02:06:05,VALID,916.367,VALID,0,VALID,94.3855,VALID,0,VALID,18.7474,VALID,10,VALID,0.382422,
2010-10-15, 02:07:05,VALID,916.375,VALID,0,VALID,94.3398,VALID,0,VALID,18.6889,VALID,10,VALID,0,
2010-10-15, 02:08:05,VALID,916.346,VALID,0,VALID,94.8887,VALID,0,VALID,18.7084,VALID,10,VALID,0.655078,
2010-10-15, 02:09:05,VALID,916.307,VALID,0,VALID,94.8353,VALID,0.107441,VALID,18.6889,VALID,10,VALID,0,
2010-10-15, 02:10:05,VALID,916.3,VALID,0,VALID,94.9344,VALID,0,VALID,18.6694,VALID,10,VALID,0,
2010-10-15, 02:11:05,VALID,916.346,VALID,0,VALID,94.7057,VALID,0,VALID,18.6304,VALID,10,VALID,0,
2010-10-15, 02:12:05,VALID,916.344,VALID,0,VALID,94.3245,VALID,0,VALID,18.6109,VALID,10,VALID,0,
2010-10-15, 02:13:05,VALID,916.295,VALID,0,VALID,94.538,VALID,0,VALID,18.6304,VALID,10,VALID,0.376953,
2010-10-15, 02:14:05,VALID,916.297,VALID,0,VALID,94.9496,VALID,0,VALID,18.6694,VALID,10,VALID,0.248047,
2010-10-15, 02:15:05,VALID,916.287,VALID,0,VALID,95.3842,VALID,0,VALID,18.7084,VALID,10,VALID,0.219141,
2010-10-15, 02:16:05,VALID,916.286,VALID,0,VALID,95.4833,VALID,0,VALID,18.6889,VALID,10,VALID,0,
2010-10-15, 02:17:05,VALID,916.273,VALID,0,VALID,95.4604,VALID,0,VALID,18.6499,VALID,10,VALID,0,
2010-10-15, 02:18:05,VALID,916.3,VALID,0,VALID,95.2317,VALID,0,VALID,18.6109,VALID,10,VALID,0,
2010-10-15, 02:19:05,VALID,916.28,VALID,0,VALID,94.9344,VALID,0,VALID,18.572,VALID,10,VALID,0,
2010-10-15, 02:20:05,VALID,916.269,VALID,0,VALID,95.186,VALID,0,VALID,18.6095,VALID,10,VALID,0.185156,
2010-10-15, 02:21:05,VALID,916.255,VALID,0,VALID,95.4223,VALID,0,VALID,18.6304,VALID,10,VALID,0.517187,
2010-10-15, 02:22:05,VALID,916.25,VALID,0,VALID,95.651,VALID,0,VALID,18.6708,VALID,10,VALID,0.281641,
2010-10-15, 02:23:05,VALID,916.266,VALID,0,VALID,95.7196,VALID,0,VALID,18.6499,VALID,10,VALID,0,
2010-10-15, 02:24:05,VALID,916.277,VALID,0,VALID,95.8035,VALID,0,VALID,18.6499,VALID,10,VALID,0,
2010-10-15, 02:25:05,VALID,916.259,VALID,0,VALID,95.7501,VALID,0,VALID,18.6109,VALID,10,VALID,0,
2010-10-15, 02:26:05,VALID,916.252,VALID,0,VALID,95.7501,VALID,0,VALID,18.6109,VALID,10,VALID,0,
2010-10-15, 02:27:05,VALID,916.249,VALID,0,VALID,95.7044,VALID,0,VALID,18.5914,VALID,10,VALID,0,
2010-10-15, 02:28:05,VALID,916.22,VALID,0,VALID,95.651,VALID,0,VALID,18.5914,VALID,10,VALID,0,
2010-10-15, 02:29:05,VALID,916.206,VALID,0,VALID,95.5748,VALID,0,VALID,18.5525,VALID,10,VALID,0,
2010-10-15, 02:30:05,VALID,916.198,VALID,0,VALID,95.4528,VALID,0,VALID,18.5135,VALID,10,VALID,0,
2010-10-15, 02:31:05,VALID,916.208,VALID,0,VALID,95.3232,VALID,0,VALID,18.494,VALID,10,VALID,0,
2010-10-15, 02:32:05,VALID,916.245,VALID,0,VALID,94.7667,VALID,0,VALID,18.3756,VALID,10,VALID,0,
2010-10-15, 02:33:05,VALID,916.217,VALID,0,VALID,95.2775,VALID,0,VALID,18.4355,VALID,10,VALID,0,
2010-10-15, 02:34:05,VALID,916.186,VALID,0,VALID,95.4452,VALID,0,VALID,18.4369,VALID,10,VALID,0,
2010-10-15, 02:35:05,VALID,916.193,VALID,0,VALID,95.7272,VALID,0,VALID,18.455,VALID,10,VALID,0,
2010-10-15, 02:36:05,VALID,916.21,VALID,0,VALID,95.773,VALID,0,VALID,18.3965,VALID,10,VALID,0,
2010-10-15, 02:37:05,VALID,916.236,VALID,0,VALID,95.9331,VALID,0,VALID,18.3965,VALID,10,VALID,0,
2010-10-15, 02:38:05,VALID,916.263,VALID,0,VALID,95.6967,VALID,0,VALID,18.3575,VALID,10,VALID,0,
2010-10-15, 02:39:05,VALID,916.279,VALID,0,VALID,95.8187,VALID,0,VALID,18.377,VALID,10,VALID,0,
2010-10-15, 02:40:05,VALID,916.304,VALID,0,VALID,95.9712,VALID,0,VALID,18.3575,VALID,10,VALID,0.223047,
2010-10-15, 02:41:05,VALID,916.267,VALID,0,VALID,96.116,VALID,0,VALID,18.3979,VALID,10,VALID,0,
2010-10-15, 02:42:05,VALID,916.267,VALID,0,VALID,96.1008,VALID,0,VALID,18.3575,VALID,10,VALID,0,
2010-10-15, 02:43:05,VALID,916.299,VALID,0,VALID,96.116,VALID,0,VALID,18.338,VALID,10,VALID,0.178906,
2010-10-15, 02:44:05,VALID,916.299,VALID,0,VALID,96.0627,VALID,0,VALID,18.3004,VALID,10,VALID,0.05625,
2010-10-15, 02:45:05,VALID,916.307,VALID,0,VALID,95.9788,VALID,0,VALID,18.2406,VALID,10,VALID,0,
2010-10-15, 02:46:05,VALID,916.338,VALID,0,VALID,96.2075,VALID,0,VALID,18.2615,VALID,10,VALID,0,
2010-10-15, 02:47:05,VALID,916.337,VALID,0,VALID,96.2533,VALID,0,VALID,18.3199,VALID,10,VALID,0,
2010-10-15, 02:48:05,VALID,916.308,VALID,0,VALID,96.2533,VALID,0,VALID,18.2796,VALID,10,VALID,0,
2010-10-15, 02:49:05,VALID,916.31,VALID,0,VALID,96.1008,VALID,0,VALID,18.2016,VALID,10,VALID,0,
2010-10-15, 02:50:05,VALID,916.252,VALID,0,VALID,96.3371,VALID,0,VALID,18.2601,VALID,10,VALID,0,
2010-10-15, 02:51:05,VALID,916.32,VALID,0,VALID,96.36,VALID,0,VALID,18.2796,VALID,10,VALID,0,
2010-10-15, 02:52:05,VALID,916.305,VALID,0,VALID,96.3829,VALID,0,VALID,18.2601,VALID,10,VALID,0,
2010-10-15, 02:53:05,VALID,916.353,VALID,0,VALID,96.3981,VALID,0,VALID,18.2601,VALID,10,VALID,0,
2010-10-15, 02:54:05,VALID,916.341,VALID,0,VALID,96.5734,VALID,0,VALID,18.338,VALID,10,VALID,0.0246094,
2010-10-15, 02:55:05,VALID,916.338,VALID,0,VALID,96.5506,VALID,0,VALID,18.3394,VALID,10,VALID,0,
2010-10-15, 02:56:05,VALID,916.323,VALID,0,VALID,96.4819,VALID,0,VALID,18.2601,VALID,10,VALID,0.0046875,
2010-10-15, 02:57:05,VALID,916.274,VALID,0,VALID,96.6039,VALID,0,VALID,18.338,VALID,10,VALID,0.511328,
2010-10-15, 02:58:05,VALID,916.27,VALID,0,VALID,96.6725,VALID,0,VALID,18.3575,VALID,10,VALID,0.293359,
2010-10-15, 02:59:05,VALID,916.262,VALID,0,VALID,96.7564,VALID,0,VALID,18.4355,VALID,10,VALID,0.5875,
2010-10-15, 03:00:05,VALID,916.231,VALID,0,VALID,96.5201,VALID,0,VALID,18.3979,VALID,10,VALID,0.237891,
2010-10-15, 03:01:05,VALID,916.225,VALID,0,VALID,96.3905,VALID,0,VALID,18.3199,VALID,10,VALID,0.0015625,
2010-10-15, 03:02:05,VALID,916.241,VALID,0,VALID,96.6039,VALID,0,VALID,18.338,VALID,10,VALID,0.152344,
2010-10-15, 03:03:05,VALID,916.212,VALID,0,VALID,96.7259,VALID,0,VALID,18.377,VALID,10,VALID,0,
2010-10-15, 03:04:05,VALID,916.186,VALID,0,VALID,96.5811,VALID,0,VALID,18.377,VALID,10,VALID,0.0773437,
2010-10-15, 03:05:05,VALID,916.189,VALID,0,VALID,96.4133,VALID,0,VALID,18.2406,VALID,10,VALID,0.652734,
2010-10-15, 03:06:05,VALID,916.159,VALID,0,VALID,96.8326,VALID,0,VALID,18.4759,VALID,10,VALID,0.499609,
2010-10-15, 03:07:05,VALID,916.141,VALID,0,VALID,96.5277,VALID,0,VALID,18.3784,VALID,10,VALID,0.291797,
2010-10-15, 03:08:05,VALID,916.116,VALID,0,VALID,96.5658,VALID,0,VALID,18.4174,VALID,10,VALID,0,
2010-10-15, 03:09:05,VALID,916.082,VALID,0,VALID,96.642,VALID,0,VALID,18.4564,VALID,10,VALID,0.183984,
2010-10-15, 03:10:05,VALID,916.096,VALID,0,VALID,96.7183,VALID,0,VALID,18.5344,VALID,10,VALID,0,
2010-10-15, 03:11:05,VALID,916.081,VALID,0,VALID,96.4515,VALID,0,VALID,18.4174,VALID,10,VALID,0.00507812,
2010-10-15, 03:12:05,VALID,916.104,VALID,0,VALID,96.6725,VALID,0,VALID,18.494,VALID,10,VALID,0.428125,
2010-10-15, 03:13:05,VALID,916.107,VALID,0,VALID,96.5734,VALID,0,VALID,18.4355,VALID,10,VALID,0.00664063,
2010-10-15, 03:14:05,VALID,916.101,VALID,0,VALID,96.6115,VALID,0,VALID,18.4355,VALID,10,VALID,0.132422,
2010-10-15, 03:15:05,VALID,916.098,VALID,0,VALID,96.6268,VALID,0,VALID,18.4355,VALID,10,VALID,0.135937,
2010-10-15, 03:16:05,VALID,916.128,VALID,0,VALID,96.6497,VALID,0,VALID,18.455,VALID,10,VALID,0,
2010-10-15, 03:17:05,VALID,916.12,VALID,0,VALID,96.6573,VALID,0,VALID,18.494,VALID,10,VALID,0.128906,
2010-10-15, 03:18:05,VALID,916.154,VALID,0,VALID,96.703,VALID,0,VALID,18.5344,VALID,10,VALID,0,
2010-10-15, 03:19:05,VALID,916.154,VALID,0,VALID,96.5658,VALID,0,VALID,18.4745,VALID,10,VALID,0.391797,
2010-10-15, 03:20:05,VALID,916.194,VALID,0,VALID,96.6115,VALID,0,VALID,18.4745,VALID,10,VALID,0.394141,
2010-10-15, 03:21:05,VALID,916.195,VALID,0,VALID,96.4667,VALID,0,VALID,18.4759,VALID,10,VALID,0,
2010-10-15, 03:22:05,VALID,916.18,VALID,0,VALID,96.6802,VALID,0,VALID,18.5135,VALID,10,VALID,0.30625,
2010-10-15, 03:23:05,VALID,916.18,VALID,0,VALID,96.5353,VALID,0,VALID,18.494,VALID,10,VALID,0.0101562,
2010-10-15, 03:24:05,VALID,916.152,VALID,0,VALID,96.4667,VALID,0,VALID,18.4564,VALID,10,VALID,0,
2010-10-15, 03:25:05,VALID,916.128,VALID,0,VALID,96.6573,VALID,0,VALID,18.5149,VALID,10,VALID,0,
2010-10-15, 03:26:05,VALID,916.101,VALID,0,VALID,96.703,VALID,0,VALID,18.5525,VALID,10,VALID,0,
2010-10-15, 03:27:05,VALID,916.115,VALID,0,VALID,96.7107,VALID,0,VALID,18.572,VALID,10,VALID,0,
2010-10-15, 03:28:05,VALID,916.133,VALID,0,VALID,96.6649,VALID,0,VALID,18.5734,VALID,10,VALID,0,
2010-10-15, 03:29:05,VALID,916.141,VALID,0,VALID,96.5734,VALID,0,VALID,18.5135,VALID,10,VALID,0,
2010-10-15, 03:30:05,VALID,916.156,VALID,0,VALID,96.5582,VALID,0,VALID,18.4745,VALID,10,VALID,0,
2010-10-15, 03:31:05,VALID,916.139,VALID,0,VALID,96.6497,VALID,0,VALID,18.5344,VALID,10,VALID,0,
2010-10-15, 03:32:05,VALID,916.162,VALID,0,VALID,96.7335,VALID,0,VALID,18.5525,VALID,10,VALID,0,
2010-10-15, 03:33:05,VALID,916.1,VALID,0,VALID,96.8631,VALID,0,VALID,18.6889,VALID,10,VALID,0,
2010-10-15, 03:34:05,VALID,916.052,VALID,0,VALID,96.9012,VALID,0,VALID,18.7878,VALID,10,VALID,0,
2010-10-15, 03:35:05,VALID,916.037,VALID,0,VALID,96.7259,VALID,0,VALID,18.7279,VALID,10,VALID,0,
2010-10-15, 03:36:05,VALID,916.023,VALID,0,VALID,96.2914,VALID,0,VALID,18.4355,VALID,10,VALID,0.336328,
2010-10-15, 03:37:05,VALID,916.042,VALID,0,VALID,96.4667,VALID,0,VALID,18.416,VALID,10,VALID,0.242578,
2010-10-15, 03:38:05,VALID,916.043,VALID,0,VALID,96.5887,VALID,0,VALID,18.455,VALID,10,VALID,0.387891,
2010-10-15, 03:39:05,VALID,916.029,VALID,0,VALID,96.5734,VALID,0,VALID,18.4174,VALID,10,VALID,0.388672,
2010-10-15, 03:40:05,VALID,916.024,VALID,0,VALID,96.5811,VALID,0,VALID,18.3965,VALID,10,VALID,0.470313,
2010-10-15, 03:41:05,VALID,916.004,VALID,0,VALID,96.6115,VALID,0,VALID,18.3575,VALID,10,VALID,0.353906,
2010-10-15, 03:42:05,VALID,915.977,VALID,0,VALID,96.7945,VALID,0,VALID,18.416,VALID,10,VALID,0.276953,
2010-10-15, 03:43:05,VALID,916.006,VALID,0,VALID,96.8326,VALID,0,VALID,18.4564,VALID,10,VALID,0.237891,
2010-10-15, 03:44:05,VALID,916.02,VALID,0,VALID,96.8098,VALID,0,VALID,18.4369,VALID,10,VALID,0,
2010-10-15, 03:45:05,VALID,915.994,VALID,0,VALID,96.9012,VALID,0,VALID,18.4759,VALID,10,VALID,0,
2010-10-15, 03:46:05,VALID,915.97,VALID,0,VALID,96.9317,VALID,0,VALID,18.494,VALID,10,VALID,0.808984,
2010-10-15, 03:47:05,VALID,915.98,VALID,0,VALID,96.9317,VALID,0,VALID,18.5149,VALID,10,VALID,0.278516,
2010-10-15, 03:48:04,VALID,915.939,VALID,0,VALID,96.947,VALID,0,VALID,18.5149,VALID,10,VALID,0.0179687,
2010-10-15, 03:49:04,VALID,915.926,VALID,0,VALID,96.9622,VALID,0,VALID,18.5734,VALID,10,VALID,0,
2010-10-15, 03:50:04,VALID,915.865,VALID,0,VALID,97.0232,VALID,0,VALID,18.6109,VALID,10,VALID,0,
2010-10-15, 03:51:04,VALID,915.848,VALID,0,VALID,96.9089,VALID,0,VALID,18.5539,VALID,10,VALID,0.257813,